Regional Weather Roundup
Issued by NWS Charleston, SC

Home | Current Version | Previous Version | Text Only | Print | Product List | Glossary On
Versions: 1 2 3 4 5 6 7 8 9 10 11 12 13 14 15 16 17 18 19 20 21 22 23 24 25 26 27 28 29 30 31 32 33 34 35 36 37 38 39 40 41 42 43 44 45 46 47 48 49 50
000
ASUS42 KCHS 211025
RWRCHS

REGIONAL WEATHER ROUNDUP
NATIONAL WEATHER SERVICE CHARLESTON SC
600 AM EDT SUN SEP 21 2014

NOTE: "FAIR" INDICATES FEW OR NO CLOUDS BELOW 12,000 FEET WITH NO
SIGNIFICANT WEATHER AND/OR OBSTRUCTIONS TO VISIBILITY.

NOT ALL STATIONS ARE QUALITY CONTROLLED BY THE NATIONAL
WEATHER SERVICE. USE DATA WITH CAUTION...ESPECIALLY
DEWPOINT OBSERVATIONS.

SCZ027-030-031-034>040-042>050-211100-
...SOUTH CAROLINA...

CITY           SKY/WX    TMP DP  RH WIND       PRES   REMARKS
N CHARLESTON   CLEAR     68  63  84 NW7       29.91R
WATERFRONT PRK   N/A     72 N/A N/A NW7         N/A
FORT JOHNSON   NOT AVBL
MOUNT PLEASANT FAIR      70  64  83 NW8G16    29.89S
JOHNS ISLAND   SUNNY     66  66 100 CALM      29.92R
PINOPOLIS        N/A     73  66  78 N16       29.83R
MONCKS CORNER    N/A     72  66  83 CALM      29.91R
SUMMERVILLE    FAIR      64  64 100 W3        29.93
BEAUFORT MCAS  CLEAR     66  61  84 S7        29.94R
BEAUFORT ARPT  FAIR      68  63  83 NW9       29.94R
HILTON HEAD IS NOT AVBL
GEORGETOWN     NOT AVBL
WALTERBORO     MOSUNNY   63 N/A N/A NW3       29.95R
ORANGEBURG     PTCLDY    62  58  86 NW6       29.94R
BARNWELL       FAIR      63  61  94 NW5       29.96S
AIKEN          FAIR      61  61 100 CALM      30.00S
MANNING        FAIR      64  64 100 CALM      29.92R
KINGSTREE      NOT AVBL
COLUMBIA       PTCLDY    64  59  83 W6        29.94S
SUMTER         PTCLDY    64  59  85 NW10      29.91S
FLORENCE       MOCLDY    67  61  81 N8        29.89S
MYRTLE BEACH   CLOUDY    68  64  88 NW10G16   29.85R
N MYRTLE BEACH CLOUDY    68  66  93 VRB7      29.83R

$$

GAZ063-065-086>088-099>101-113>116-118-119-134-136>141-150-211100-
...GEORGIA...

CITY           SKY/WX    TMP DP  RH WIND       PRES   REMARKS
SAVANNAH ARPT  CLEAR     65  59  81 NW5       29.96R
HUNTER AAF     CLEAR     64  62  91 NW6       29.94R
FORT STEWART   CLEAR     63  59  88 CALM      29.96R
STATESBORO     NOT AVBL
SYLVANIA       SUNNY     64  62  96 CALM      29.98R
CLAXTON        FAIR     N/A N/A N/A CALM      29.98R HAZE
THOMSON        CLEAR     59  59 100 CALM      30.03S
AUGUSTA-BUSH   CLEAR     58  57  97 CALM      29.97S
AUGUSTA-DANIEL CLEAR     67  61  81 N7        29.98S
SWAINSBORO     FAIR      61  61 100 NW3       29.99S
VIDALIA        CLEAR     61  61 100 CALM      30.00R
ALMA           CLEAR     63  61  93 NW5       29.99R
WAYCROSS       NOT AVBL
JESUP          FAIR      64  63  94 NW3       29.99R
BRUNSWICK      CLEAR     64  63  94 NW3       29.98R
SAINT SIMONS   CLEAR     66  62  87 NW7       29.96R

$$

SCZ027-028-034-036>038-045-046-048>050-GAZ119-141-211100-
...LAKE AND SUPPLEMENTAL COASTAL OBSERVATIONS...

STATION/POSITION TIME  TEMP    WIND        PRES    WAVE   SWELL
                       AIR SEA DIR/SP/G            HT/PER HT/PER/DIR
                 (UTC) (F)     (DEG/KT/KT) (MB)    (FT/S) (FT/S/D)
UPR LAKE MARION  NOT AVBL
WINYAH BAY       1000   69     300/  6     1011.0S
LAKE MURRAY      0900   65     330/  2/  6 1013.9S
ACE BASIN NERRS  1000   65     310/  2     1013.0S
FORT PULASKI     1000   66     310/  8/ 10 1014.3R
SAPELO ISLAND    1000   67     340/  4     1014.0S

$$

ANZ835-935-AMZ111-154-330-350-352-354-374-450-454-472-211100-
...C-MAN AND BUOY OBSERVATIONS...

STATION/POSITION TIME  TEMP    WIND        PRES    WAVE   SWELL
                       AIR SEA DIR/SP/G            HT/PER HT/PER/DIR
                 (UTC) (F)     (DEG/KT/KT) (MB)    (FT/S) (FT/S/D)
FOLLY BEACH CMAN 1000   69     320/  6/  8 1012.8R
BUOY 41004       1000   75 81  320/ 19/ 21 1010.0R   7/ 8
BUOY 41008       1000   76 83  360/ 16/ 19 1013.3R   5/ 7
5E ST. MARYS GA  1000      83                N/A     4/ 6
FRYING PAN BUOY  NOT AVBL
BUOY 41025       1000   74     290/  6/ 12 1005.5F   9/ 8   8/110/ 8
CAPE LOOKOUT NC  1000   72      10/ 15/ 19 1005.6R
BUOY 41002       0915   78 82  230/ 29/ 37 1007.6R  10/ 7
BUOY 41010       1000   80 84  270/ 10/ 14 1012.7R   4/ 8   3/ 20/ 8
BUOY 41012       NOT AVBL
ST AUGUSTINE FL  1000   69     300/  4/  5 1014.9R
CAPERS NEARSHORE 0900   71     330/ 14/ 16   N/A
FRIPP NEARSHORE  NOT AVBL


$$


USA.gov is the U.S. government's official web portal to all federal, state and local government web resources and services.